Simultaneous Nadir Overpasses (SNOs) Predictions

Prediction of SNOs between METOP-B and TERRA Satellite Orbit:

Table of predicted SNOs for the next 14.0 days since TLE Epoch: 3/1/2014
Index Date (METOP-B) Time (METOP-B) Lat,Lon (METOP-B) SZA (METOP-B ) Date (TERRA) Time (TERRA) Lat,Lon (TERRA) SZA (TERRA ) Distance(km) Time Diff (sec)
1 03/02/2014 15:31:41 -81.30, 174.03 89.26 03/02/2014 15:32:24 -81.29, 174.08 89.24 1.04 43
2 03/02/2014 16:22:21 81.31, -18.06 90.80 03/02/2014 16:21:50 81.30, -18.19 90.76 2.45 31
3 03/05/2014 11:06:04 -81.31,-119.16 90.27 03/05/2014 11:06:35 -81.31,-119.18 90.26 0.58 31
4 03/05/2014 11:56:44 81.31, 48.71 89.78 03/05/2014 11:56:01 81.31, 48.51 89.74 3.25 43
5 03/08/2014 06:40:28 -81.31, -52.81 91.35 03/08/2014 06:40:45 -81.31, -52.69 91.33 1.99 17
6 03/08/2014 07:31:08 81.31, 115.00 88.70 03/08/2014 07:30:11 81.31, 114.96 88.67 0.56 57
7 03/11/2014 02:14:51 -81.30, 13.47 92.44 03/11/2014 02:14:53 -81.30, 13.54 92.44 1.41 2
8 03/11/2014 03:05:30 81.32,-178.40 87.64 03/11/2014 03:04:18 81.32,-178.46 87.61 1.02 72
9 03/13/2014 20:58:34 81.30, -87.56 86.48 03/13/2014 20:59:33 81.29, -87.73 86.48 3.13 59




NCC Satellite Simultaneous Nadir Overpasses (SNOs) Prediction Service
